Temp
50 40 40 45 53 53 54 54 54 60 68 66 65 65 68 71 71 72 69 70 72 74 77 81 81 78 75 75 72 70 71 73 75 76 73 74 74 74 73 77 79 78 79 79
44 37 47 53 53 53 52 51 54 62 69 66 62 63 66 71 71 73 73 71 71 72 74 81 77 77 74 72 71 68 72 74 75 76 77 74 74 73 72 74 76 77 78 75
39 43 51 52 50 48 51 49 53 56 65 68 63 57 64 72 74 72 77 77 72 75 72 75 76 75 75 73 72 71 72 69 73 77 74 72 71 71 71 72 72 74 76 75
45 51 49 49 48 51 45 58 60 60 58 50 65 47 59 67 68 71 71 75 74 73 75 74 72 70 72 73 72 70 72 72 74 73 72 71 69 69 69 71 71 71 73 74
42 46 46 45 49 54 46 60 58 58 55 53 58 50 58 62 62 67 70 72 75 72 74 73 72 73 74 75 71 65 67 72 73 72 72 71 69 70 71 71 68 67 68 71
44 54 52 47 53 58 58 54 57 56 54 43 53 51 48 59 64 68 68 72 75 73 73 73 76 77 73 74 71 71 72 71 72 71 71 71 70 70 71 69 66 67 67 67
45 45 52 53 43 54 54 48 39 38 40 34 53 52 50 64 70 69 69 70 72 74 73 72 72 72 70 72 72 71 69 69 70 70 71 71 69 69 69 68 68 64 63 62
34 35 47 55 49 46 49 48 33 29 33 39 52 47 56 67 73 73 74 72 72 72 70 73 73 71 69 70 69 69 68 68 69 67 66 67 66 64 63 65 66 64 63 61
33 38 55 57 56 51 44 44 48 38 45 39 45 52 63 72 69 70 71 73 68 68 69 70 69 68 67 66 66 66 67 66 65 64 64 64 63 62 61 62 64 62 61 63
38 33 53 56 58 54 48 57 41 40 31 33 45 48 48 57 60 68 69 63 65 66 64 65 66 65 65 66 66 66 67 65 65 64 63 63 62 62 63 63 61 60 60 61
43 39 44 54 47 42 43 43 48 43 40 34 36 42 57 52 62 61 62 65 64 62 63 64 65 66 67 68 68 67 69 68 67 66 65 62 62 62 62 60 59 59 59 60
43 40 33 45 54 54 51 48 49 38 36 46 45 38 56 58 60 61 64 63 64 65 64 64 65 65 65 66 67 66 68 67 65 63 62 60 60 59 57 57 58 59 58 59
41 38 29 34 46 52 45 51 54 48 44 44 36 39 55 57 56 59 61 62 64 65 63 64 65 65 66 66 67 67 67 63 63 62 59 58 56 56 56 56 57 58 58 58
45 39 36 30 40 46 42 48 54 49 40 42 40 44 49 49 51 54 57 62 63 64 64 64 64 65 66 67 67 66 63 63 62 60 57 56 55 55 55 56 56 57 57 57
43 36 41 43 49 53 47 47 51 48 47 42 44 46 47 50 53 54 56 58 61 61 62 63 63 63 64 63 62 62 62 61 60 58 56 55 55 56 56 56 56 56 55 56
44 36 40 42 50 49 48 48 50 52 56 52 48 45 52 53 58 60 60 60 60 59 60 61 62 62 61 60 59 60 59 58 58 57 57 58 57 57 55 54 54 54 54 54
38 39 38 33 44 46 40 51 51 53 54 53 44 47 51 51 55 58 59 59 58 58 59 59 58 58 58 57 57 56 56 58 57 57 58 58 57 56 54 54 54 55 53 52
40 40 39 34 40 27 41 48 55 52 52 50 49 51 52 53 57 59 60 58 56 57 56 57 57 55 53 54 55 56 57 57 57 54 56 57 56 54 53 52 51 55 53 52
45 41 37 32 34 38 41 43 43 44 45 50 50 52 53 54 54 53 58 58 56 55 55 54 53 52 52 53 54 54 54 55 56 54 54 55 54 52 54 54 53 53 53 51
45 44 38 37 32 29 36 41 46 44 40 51 50 49 49 53 40 42 54 55 54 54 54 52 51 51 51 50 52 52 51 51 51 53 53 53 54 56 53 53 53 54 51 52
33 32 34 35 34 35 35 39 44 37 40 51 53 51 50 45 46 49 52 51 52 51 51 52 49 47 48 50 50 47 48 47 51 53 53 52 50 53 52 53 53 54 54 49
28 29 27 33 33 29 39 41 44 46 52 51 51 50 48 47 47 47 48 48 50 49 49 49 46 45 47 48 47 45 45 48 50 50 50 49 48 51 53 52 52 53 52 51
28 30 28 29 27 34 36 37 50 50 48 49 48 50 49 46 47 47 48 48 48 48 47 47 45 45 46 46 45 43 45 49 50 50 49 49 51 52 52 50 47 47 48 48
31 34 32 32 33 33 36 43 48 48 46 47 49 49 48 45 46 45 47 47 47 48 46 47 46 44 43 45 45 43 45 49 47 44 45 47 47 47 45 47 45 42 39 39
30 32 30 31 33 36 36 38 46 46 47 45 45 45 44 44 42 43 44 44 45 45 46 46 44 43 44 44 44 44 44 46 43 43 41 44 45 45 43 41 41 41 35 37
32 29 28 26 33 33 32 38 43 44 42 44 44 44 45 47 45 44 41 42 44 44 45 43 43 43 45 45 44 44 44 45 41 42 40 42 43 43 42 42 40 40 40 40
MSLP
1006.13 1006.29 1005.37 1004.74 1003.98 1003.21 1002.11 1000.66 999.41 998.40 998.17 997.43 997.05 997.90 997.94 998.14 998.45 998.75 999.25 999.78 999.97 1000.34 1000.54 1000.06 1000.66 1002.51 1003.23 1004.05 1005.21 1005.63 1006.42 1007.43 1008.26 1008.52 1008.21 1008.79 1009.52 1010.00 1010.22 1010.22 1010.20 1010.94 1011.36 1011.48
1005.94 1005.27 1004.75 1004.50 1003.76 1003.02 1001.96 1000.49 998.82 998.31 997.32 997.20 997.01 997.40 997.83 997.93 997.95 998.34 998.84 999.39 999.89 1000.41 1000.48 999.92 1000.87 1002.27 1002.90 1004.26 1005.24 1006.41 1006.96 1006.99 1007.12 1006.73 1007.18 1008.42 1009.22 1009.86 1009.67 1010.36 1010.48 1010.82 1011.32 1011.87
1005.45 1004.92 1004.91 1004.30 1003.30 1002.79 1000.91 1000.04 998.85 997.81 996.74 996.38 997.18 997.59 997.69 997.18 997.46 997.76 997.85 998.42 999.18 999.89 1000.10 999.94 1000.82 1001.98 1002.98 1003.86 1005.47 1006.69 1007.19 1008.58 1006.59 1006.95 1007.41 1008.05 1009.77 1009.98 1010.49 1010.49 1010.50 1011.02 1011.52 1012.26
1004.25 1003.90 1003.92 1003.23 1002.67 1002.28 1000.63 999.68 998.94 997.65 997.06 996.69 996.51 997.05 997.03 997.00 996.94 997.23 997.50 997.92 998.62 999.17 999.50 999.78 1000.70 1002.09 1002.30 1003.10 1004.11 1005.46 1006.22 1006.61 1008.02 1007.17 1007.51 1006.94 1008.73 1010.10 1010.44 1010.52 1011.18 1011.50 1011.97 1012.43
1003.68 1003.19 1002.92 1002.36 1002.09 1001.72 1001.32 999.54 998.72 998.10 997.93 997.22 996.70 997.51 996.66 996.60 996.94 996.55 996.79 997.42 998.10 998.68 999.11 999.72 1000.59 1001.39 1002.12 1002.50 1004.07 1005.39 1006.06 1006.38 1006.63 1007.32 1007.71 1008.39 1009.53 1009.88 1010.13 1010.70 1011.79 1012.40 1012.58 1012.96
1003.70 1003.06 1002.43 1002.05 1001.45 1000.94 1000.66 1000.11 999.13 998.76 998.72 998.12 997.54 996.70 996.20 995.81 995.06 995.76 996.51 997.00 997.72 998.37 998.84 999.53 1000.13 1000.88 1002.26 1003.74 1004.95 1005.63 1006.24 1006.90 1007.30 1007.83 1008.10 1008.37 1009.11 1009.55 1010.58 1011.46 1012.18 1012.71 1013.52 1013.89
1002.56 1001.45 1001.25 1001.52 1001.85 1000.60 1000.11 1000.16 999.93 999.50 999.16 999.62 998.23 997.01 995.38 994.84 995.01 995.69 996.22 996.73 997.36 998.10 998.92 999.66 1000.18 1001.14 1002.96 1004.34 1005.94 1007.74 1007.60 1007.50 1007.84 1008.19 1008.56 1008.97 1009.34 1010.08 1010.92 1011.91 1012.45 1013.65 1014.02 1014.38
1002.74 1000.37 999.51 999.60 1000.14 1000.16 999.90 1000.26 1001.29 999.90 999.67 999.16 998.84 997.13 994.51 994.34 994.45 995.18 995.69 996.57 997.50 998.21 998.86 999.84 1000.67 1001.83 1003.52 1005.35 1006.62 1008.22 1007.96 1008.32 1008.73 1008.88 1009.60 1009.98 1010.58 1011.09 1011.63 1011.82 1012.78 1013.72 1014.42 1014.79
1003.02 1000.16 997.76 998.11 998.92 1000.16 1000.17 999.97 1001.10 1001.12 999.34 999.70 998.44 996.66 994.94 994.37 994.12 994.94 995.54 996.54 997.90 998.53 999.35 1000.33 1001.55 1002.70 1004.11 1005.73 1007.02 1007.58 1008.35 1009.23 1009.52 1010.09 1010.30 1010.95 1011.38 1011.58 1012.48 1012.86 1013.40 1014.07 1014.64 1015.07
1003.76 1001.12 998.09 997.62 998.62 999.45 999.71 999.41 1001.14 1001.02 1000.21 999.36 997.86 997.30 995.97 994.81 994.77 995.33 996.20 997.46 998.76 999.73 1000.70 1001.61 1002.57 1003.52 1004.87 1006.55 1007.66 1008.36 1009.35 1010.17 1010.82 1010.98 1011.26 1011.90 1012.12 1012.50 1013.11 1013.48 1014.12 1014.56 1014.94 1015.46
1003.82 1002.31 998.78 998.00 998.72 999.20 999.82 1000.15 1000.22 1000.22 1000.07 998.82 998.46 997.70 996.32 995.98 995.21 996.12 997.23 998.64 999.89 1000.96 1001.93 1002.85 1003.95 1004.86 1005.94 1007.12 1007.67 1008.66 1009.40 1010.51 1011.05 1011.44 1011.94 1012.52 1013.07 1013.56 1013.94 1014.30 1014.68 1015.22 1015.62 1015.89
1004.04 1002.79 1000.44 998.26 997.94 998.36 998.90 999.33 999.79 1000.56 1000.06 998.94 998.34 999.66 998.91 997.14 997.25 997.27 998.66 999.93 1000.95 1002.01 1003.20 1004.18 1004.92 1005.81 1006.95 1007.74 1008.26 1009.11 1010.25 1011.19 1012.00 1012.47 1012.97 1013.54 1014.08 1014.37 1014.70 1015.22 1015.67 1015.84 1016.03 1016.22
1004.33 1003.03 1001.38 999.16 998.51 998.06 998.56 998.91 999.35 999.42 1000.02 1000.05 999.91 1001.10 1000.13 999.50 999.24 999.69 999.90 1000.93 1002.02 1003.19 1004.44 1005.41 1006.16 1006.71 1007.44 1008.43 1009.02 1009.94 1011.23 1012.21 1012.88 1013.30 1014.10 1014.60 1014.99 1015.39 1015.82 1016.01 1016.16 1016.28 1016.46 1016.65
1004.40 1003.36 1002.06 1000.64 999.12 998.48 998.53 998.44 998.44 999.29 1000.40 1000.79 1000.89 1001.63 1002.20 1001.77 1001.33 1001.40 1001.82 1002.04 1002.84 1004.03 1005.12 1006.17 1007.05 1007.74 1008.26 1009.17 1009.88 1011.30 1012.40 1013.14 1013.69 1014.19 1015.00 1015.46 1015.85 1016.01 1016.21 1016.40 1016.61 1016.80 1017.12 1017.29
1004.02 1003.36 1002.00 1000.70 999.54 998.85 998.96 999.02 999.19 999.99 1000.68 1001.19 1001.83 1002.68 1003.23 1002.82 1002.53 1002.80 1002.84 1003.57 1004.32 1005.40 1006.34 1007.14 1007.92 1008.87 1009.80 1010.69 1011.82 1012.57 1013.39 1013.88 1014.25 1015.01 1015.54 1016.03 1016.27 1016.38 1016.56 1016.84 1017.23 1017.38 1017.57 1017.82
1003.77 1003.18 1002.13 1000.67 999.78 999.16 998.84 999.78 1000.08 1000.06 1000.30 1000.22 1001.87 1002.94 1003.41 1003.74 1003.01 1003.62 1004.20 1004.60 1005.46 1006.82 1007.70 1008.42 1009.50 1010.40 1011.59 1012.67 1013.50 1014.07 1014.48 1014.76 1015.08 1015.62 1016.03 1016.34 1016.59 1016.80 1017.12 1017.47 1017.59 1017.75 1017.98 1018.26
1003.67 1003.02 1002.12 1001.65 1001.19 1000.85 1000.63 999.20 999.46 999.04 999.09 1000.01 1001.81 1003.45 1004.00 1004.41 1004.55 1005.11 1005.72 1006.31 1007.23 1008.30 1009.35 1010.14 1011.16 1012.24 1013.29 1014.12 1014.60 1015.21 1015.51 1015.70 1016.02 1016.33 1016.67 1016.96 1017.12 1017.56 1017.84 1017.93 1017.99 1018.14 1018.44 1018.68
1003.26 1002.87 1002.14 1002.67 1002.12 1002.66 1002.84 1000.73 1000.23 1000.33 1000.46 1001.34 1002.79 1004.34 1005.03 1005.36 1005.60 1006.55 1007.30 1007.91 1008.93 1009.95 1010.63 1011.74 1012.76 1013.79 1014.77 1015.31 1015.80 1016.04 1016.34 1016.65 1016.88 1017.11 1017.31 1017.52 1017.78 1018.14 1018.36 1018.54 1018.56 1018.63 1018.78 1019.09
1003.00 1003.27 1002.95 1003.02 1003.57 1004.29 1004.31 1004.60 1004.92 1004.43 1003.66 1003.02 1003.78 1005.14 1005.84 1006.31 1006.67 1008.88 1009.29 1009.76 1010.54 1011.42 1012.56 1013.53 1014.47 1015.30 1015.89 1016.50 1016.92 1017.12 1017.29 1017.52 1017.75 1017.98 1018.23 1018.47 1018.62 1018.85 1018.83 1018.99 1018.98 1018.98 1019.13 1019.38
1003.63 1003.91 1004.08 1003.54 1004.69 1005.96 1006.90 1006.10 1005.37 1004.77 1004.64 1004.50 1004.60 1006.23 1006.27 1006.79 1008.93 1011.39 1010.88 1011.11 1012.18 1013.14 1014.27 1015.27 1016.18 1016.72 1017.26 1017.73 1017.84 1018.08 1018.28 1018.41 1018.57 1018.80 1019.04 1019.14 1019.10 1019.04 1019.16 1019.26 1019.25 1019.22 1019.40 1019.62
1006.50 1006.35 1006.16 1005.98 1006.94 1008.13 1008.52 1007.84 1006.64 1006.32 1006.22 1005.49 1005.95 1007.16 1007.61 1008.95 1010.61 1012.24 1012.15 1012.93 1013.93 1014.91 1015.84 1016.80 1017.58 1018.26 1018.63 1018.85 1019.07 1019.34 1019.42 1019.54 1019.48 1019.54 1019.64 1019.80 1019.57 1019.44 1019.44 1019.52 1019.46 1019.46 1019.55 1019.81
1009.74 1009.40 1009.19 1008.72 1009.45 1010.60 1009.03 1007.71 1006.41 1006.26 1006.11 1006.50 1007.42 1008.39 1009.44 1010.80 1012.11 1013.28 1013.94 1014.58 1015.46 1016.31 1017.39 1018.40 1019.01 1019.51 1019.72 1019.99 1020.17 1020.36 1020.35 1020.19 1020.13 1020.39 1020.41 1020.49 1020.34 1020.19 1019.98 1019.95 1019.84 1019.87 1019.92 1020.21
1011.85 1012.40 1012.00 1012.22 1013.03 1013.04 1011.85 1009.75 1007.79 1007.34 1007.82 1008.84 1009.27 1010.22 1010.52 1012.22 1013.53 1014.39 1015.24 1016.04 1016.75 1017.64 1018.74 1019.48 1020.01 1020.39 1020.76 1021.03 1021.16 1021.26 1021.15 1020.84 1020.95 1021.12 1021.19 1021.24 1021.04 1020.77 1020.64 1020.59 1020.69 1020.82 1020.85 1021.23
1013.97 1013.74 1013.38 1013.78 1013.97 1013.55 1012.13 1009.98 1009.41 1009.33 1010.02 1010.87 1011.48 1012.08 1012.40 1013.29 1014.53 1015.75 1016.54 1017.24 1017.89 1018.87 1019.65 1020.23 1020.69 1021.20 1021.57 1021.85 1022.06 1022.01 1022.00 1021.67 1021.72 1021.94 1022.06 1022.01 1021.81 1021.66 1021.64 1021.59 1021.82 1021.98 1022.24 1022.51
1016.44 1015.70 1015.25 1015.28 1014.82 1013.97 1013.14 1012.36 1011.54 1011.61 1012.03 1012.90 1013.61 1014.26 1014.54 1014.95 1016.10 1016.98 1017.69 1018.72 1019.34 1019.96 1020.50 1020.88 1021.17 1021.63 1022.13 1022.48 1022.68 1022.77 1022.85 1022.55 1022.62 1022.73 1022.89 1022.75 1022.46 1022.30 1022.52 1022.76 1022.81 1022.89 1023.25 1023.45
1017.68 1017.47 1017.18 1017.13 1017.02 1016.52 1016.12 1015.11 1014.08 1013.30 1013.71 1014.38 1014.32 1015.68 1016.69 1016.65 1017.47 1018.36 1019.02 1020.25 1020.78 1020.83 1021.20 1021.38 1021.71 1022.18 1022.64 1022.78 1023.03 1023.41 1023.46 1023.33 1023.38 1023.50 1023.58 1023.36 1023.02 1023.08 1023.05 1023.15 1023.45 1023.54 1023.60 1023.64
Wind_Speed
5 5 16 17 20 23 19 20 22 15 19 16 23 15 14 10 9 14 10 9 10 9 9 15 11 14 18 24 24 18 14 15 12 9 5 4 3 3 3 2 7 7 6 6
10 14 21 18 20 23 25 24 21 16 18 19 12 16 9 13 12 14 15 12 11 9 10 16 8 13 17 21 19 16 11 11 8 5 5 4 3 2 5 2 6 6 6 7
13 11 14 25 21 22 26 23 19 16 16 16 11 7 17 19 16 8 19 16 11 17 12 9 7 15 19 18 18 17 13 5 9 13 5 4 3 3 3 2 5 5 7 7
12 17 18 21 24 21 23 21 21 16 13 14 17 13 14 19 15 14 10 18 15 12 10 8 8 15 17 15 13 17 21 28 18 8 7 6 6 6 3 4 5 6 7 7
9 9 13 18 21 22 20 19 17 19 13 1 15 10 16 13 12 15 14 15 17 12 12 10 12 18 16 18 12 6 6 6 7 6 7 7 6 3 5 7 10 7 7 8
19 15 14 9 15 21 18 19 18 15 9 7 18 10 7 15 24 14 8 13 17 13 11 9 13 18 15 13 10 10 8 5 5 6 7 8 10 10 10 8 6 6 6 6
10 20 19 14 7 17 21 14 8 11 8 7 11 8 8 15 14 12 11 11 12 13 11 10 10 13 15 16 16 6 4 7 7 5 6 8 8 9 11 10 7 7 5 5
4 5 18 22 24 6 18 13 3 5 9 12 11 8 14 10 15 12 14 12 10 12 9 12 15 14 18 18 20 16 10 9 10 11 10 13 12 8 7 9 9 8 6 5
5 6 13 17 9 10 6 12 18 6 5 5 6 4 2 15 12 15 18 17 10 9 10 13 18 16 19 19 17 16 15 14 14 12 15 14 10 12 10 12 10 6 6 5
4 7 12 18 15 15 8 6 11 4 5 6 5 8 5 5 5 16 19 11 13 20 22 19 20 20 19 19 18 18 17 13 11 13 13 12 12 11 11 11 10 8 7 6
3 4 3 18 7 10 4 2 5 3 4 6 7 5 6 5 13 19 20 23 22 21 22 21 20 20 19 17 18 17 19 16 14 14 13 13 11 11 10 9 7 7 6 6
5 3 5 13 14 18 6 8 9 7 7 4 4 2 10 16 17 23 23 25 24 23 22 21 21 21 18 17 16 17 16 16 12 11 11 11 10 9 9 8 7 6 6 6
6 1 4 7 7 4 5 8 11 8 3 4 3 3 7 11 16 15 26 23 22 24 22 20 19 18 18 16 16 17 15 13 10 11 10 9 8 8 8 7 7 7 6 6
5 4 3 2 3 4 3 6 5 3 1 5 3 7 4 6 10 10 14 20 20 21 20 20 19 18 18 16 16 13 11 10 10 10 8 8 8 7 7 7 7 7 7 8
6 4 5 10 15 8 6 6 5 6 11 5 9 14 7 5 5 11 12 16 22 23 21 19 19 17 17 16 13 12 11 10 9 8 7 7 7 7 7 6 7 7 8 7
2 3 7 6 3 8 3 7 10 12 24 16 16 12 5 6 9 11 17 22 23 21 22 22 21 21 18 14 12 11 10 8 8 7 7 7 7 6 7 7 7 7 7 7
1 2 2 1 2 4 7 6 8 2 13 14 15 10 13 8 15 16 19 21 23 22 21 21 20 17 13 11 9 8 7 7 7 7 7 7 7 9 8 7 7 6 5 5
3 3 2 6 4 4 5 18 11 9 7 15 20 18 17 12 17 19 18 21 22 22 21 20 16 15 10 8 8 7 7 8 10 8 7 8 9 9 7 7 6 6 5 6
4 2 2 5 5 3 9 11 6 9 9 20 21 16 21 18 26 19 20 21 22 22 18 17 13 10 9 8 7 9 9 9 8 8 8 8 7 6 6 5 5 4 4 5
9 5 1 4 6 4 2 13 16 14 5 11 21 12 23 23 18 9 18 23 22 20 17 15 12 11 11 8 8 10 8 7 7 8 7 6 5 5 5 5 4 3 3 5
7 6 6 4 6 4 7 21 10 4 5 17 21 18 17 19 14 15 20 21 20 18 17 13 10 8 7 9 9 9 8 8 8 10 8 8 7 6 5 4 3 4 3 4
7 5 5 4 5 4 18 19 4 6 14 16 17 20 25 23 20 19 18 19 18 18 15 11 10 10 9 8 8 7 7 6 7 8 7 7 6 6 5 5 4 6 7 5
6 7 3 6 3 6 16 17 14 16 18 18 21 19 26 22 20 18 17 16 16 15 11 8 9 10 9 9 7 8 7 7 9 9 7 6 8 7 8 9 8 6 10 9
10 10 4 1 5 9 15 16 17 20 21 18 16 17 20 23 20 18 15 14 13 11 10 9 10 9 8 8 9 7 8 7 9 8 9 6 7 8 8 7 6 7 7 6
4 9 7 3 6 6 20 20 13 20 22 19 19 17 18 19 17 15 16 13 12 10 8 6 8 8 9 8 8 8 7 8 8 8 6 6 5 7 6 6 4 6 4 4
6 5 4 3 7 4 7 13 15 22 20 17 20 17 14 15 16 17 15 11 8 9 6 6 7 8 9 8 10 8 7 9 7 6 4 5 5 5 4 3 4 9 6 3
Wind_Direction
229 255 239 246 232 243 244 246 236 250 220 230 215 212 196 228 204 198 185 179 177 193 229 230 229 135 143 145 148 156 169 173 177 172 154 136 153 143 57 55 123 139 158 160
260 224 252 242 257 236 245 244 235 227 223 224 205 205 199 209 232 196 192 185 181 199 228 224 180 151 149 144 154 151 178 191 199 171 150 136 122 124 114 104 121 145 108 103
236 246 248 247 247 259 238 238 243 230 206 230 206 217 201 209 219 211 197 189 176 190 212 225 169 141 144 151 146 149 170 197 254 205 132 102 108 81 87 123 89 77 91 94
222 240 239 251 240 244 249 238 244 248 216 214 203 218 219 202 206 215 202 190 183 181 204 205 141 133 137 145 144 152 167 160 211 165 152 178 132 162 161 114 104 79 79 81
268 213 248 237 237 237 267 242 236 251 264 218 200 194 206 168 208 212 208 180 181 180 189 190 148 144 153 155 159 152 155 147 135 151 141 147 152 130 104 108 93 83 64 71
263 261 252 271 272 234 244 269 243 246 246 259 255 170 207 185 206 202 181 173 170 170 178 155 147 149 149 129 128 156 153 151 130 151 161 145 138 126 120 114 113 90 84 70
265 233 229 217 256 254 229 232 228 215 215 214 266 262 197 205 198 189 169 158 158 158 160 147 130 127 120 117 95 349 162 136 142 125 125 126 122 109 129 137 124 117 94 73
264 265 193 200 219 188 225 224 216 137 156 209 219 232 204 209 187 186 158 156 149 156 155 143 130 112 108 125 140 159 118 84 81 66 64 83 82 84 66 93 101 100 99 94
302 258 184 184 150 145 218 213 197 310 177 127 194 279 187 178 180 173 159 154 149 149 146 107 105 94 93 97 95 97 88 79 85 86 84 81 79 84 80 81 87 92 99 95
288 299 187 176 175 185 221 179 191 190 184 156 160 203 208 155 216 163 147 126 112 91 93 94 93 92 88 93 103 97 96 91 92 95 85 87 83 78 78 80 78 75 70 73
252 266 224 155 156 204 163 179 247 21 263 158 149 222 126 80 141 122 110 104 100 100 97 97 97 96 98 99 99 95 88 87 78 76 79 81 79 77 75 76 72 73 73 76
303 321 298 177 155 195 193 215 184 178 261 291 137 281 330 102 91 101 106 102 104 102 103 101 102 102 101 98 93 91 91 88 80 77 77 74 76 73 68 67 77 74 75 64
340 286 324 346 110 105 172 233 184 178 349 170 96 269 4 51 80 87 109 111 110 110 108 107 105 106 101 97 94 91 87 87 83 79 76 71 69 73 77 72 68 61 68 61
185 291 258 205 142 145 112 310 158 175 11 52 357 104 63 67 93 100 99 109 108 107 104 103 102 99 98 95 91 96 94 93 90 82 79 81 80 78 80 74 69 60 58 79
185 259 248 265 285 127 160 251 327 292 210 128 158 139 154 128 123 118 126 107 103 104 105 101 96 91 85 77 79 80 87 91 90 90 91 95 90 84 85 86 67 72 62 59
303 290 346 258 313 336 182 204 230 256 199 120 119 112 112 111 85 109 107 105 104 101 97 93 90 82 79 78 77 80 79 79 84 85 87 96 87 80 67 76 69 70 73 57
232 275 222 343 150 290 213 256 201 350 68 120 143 134 114 100 112 104 106 102 102 99 93 88 82 80 75 73 78 76 79 79 81 81 67 74 76 68 65 63 60 53 72 85
186 263 17 137 92 72 35 23 23 80 77 104 116 138 125 124 102 99 102 101 95 93 86 82 80 75 67 64 63 80 77 72 68 57 58 60 65 71 61 59 52 40 45 85
242 317 295 130 108 137 25 18 17 350 118 128 124 130 127 106 87 79 93 92 87 84 79 77 71 70 67 65 61 67 65 70 74 64 58 58 68 68 67 54 53 33 57 94
31 52 218 89 80 95 350 316 354 330 106 138 116 141 126 116 97 98 98 93 88 81 78 72 63 61 58 50 61 64 53 57 64 78 76 62 76 85 72 64 35 35 35 97
359 358 16 52 90 65 340 321 303 185 151 142 135 133 121 111 114 112 87 82 85 84 81 72 58 58 67 59 61 60 53 43 47 56 58 45 8 87 72 68 45 17 49 104
19 326 14 345 75 64 345 332 350 126 116 116 111 112 105 105 103 98 91 92 91 90 83 73 68 55 48 58 60 54 56 46 63 57 47 39 30 38 30 33 22 27 19 93
45 349 10 27 78 282 299 254 85 85 88 102 110 117 112 109 106 103 102 98 97 95 99 90 81 74 60 52 49 48 14 47 70 62 45 35 32 42 39 49 46 42 37 39
348 9 38 241 347 320 353 29 79 85 83 79 85 97 104 106 100 98 99 97 95 97 98 105 100 88 74 66 56 42 16 55 67 62 40 28 44 53 42 44 53 57 46 40
343 315 331 20 347 331 19 20 90 92 88 85 79 83 91 96 92 89 88 82 84 88 83 94 106 101 91 89 74 54 27 50 61 64 34 21 48 38 72 58 51 83 59 85
348 335 356 34 335 7 0 23 46 90 93 95 100 98 98 100 102 96 92 91 89 94 82 67 87 110 115 101 97 84 58 58 63 62 45 33 44 48 34 78 75 58 95 53